Cosmos 1461 - Orbit

View from above orbital plane
View from above orbital plane
View from above satellite
View from above satellite

Ground track
Ground track

The orbit data is extracted from the following two-line orbital elements,

1 14064U 83044A   13169.71833348  .00002155  00000-0  20741-3 0  2051
2 14064 065.0047 099.4533 0136893 262.4964 096.1060 14.85876882505813
Epoch (UTC): 18 June 2013 17:14:24
Eccentricity: 0.0136893
inclination: 65.0047°
perigee height: 515 km
apogee height: 706 km
right ascension of ascending node: 99.4533°
argument of perigee: 262.4964°
revolutions per day: 14.85876882
mean anomaly at epoch: 96.1060°
orbit number at epoch: 50581

The dashed part of the orbit path shows where the satellite is in the earth's shadow,  

Developed and maintained by Chris Peat, Heavens-Above GmbH. Please read the updated FAQ before sending e-mail. Imprint. DLR